Weather History for Camden, SC

Change the Weather History Date:

Monday, October 15, 2012

  Actual Average (KSSC) Record (KSSC)
Temperature  
Mean Temperature 68 °F -  
Max Temperature 78 °F 72 °F 84 °F (2008)
Min Temperature 59 °F 51 °F 41 °F (2006)
Cooling Degree Days 4    
Growing Degree Days 18 (Base 50)    
Moisture  
Dew Point 61 °F    
Average Humidity 75    
Maximum Humidity 100    
Minimum Humidity 56    
Precipitation  
Precipitation 0.00 in - - ()
Sea Level Pressure  
Sea Level Pressure 29.90 in    
Wind  
Wind Speed 5 mph (WSW)    
Max Wind Speed 20 mph    
Max Gust Speed 24 mph    
Visibility 10 miles    
Events      
Averages and records for this station are not official NWS values.
T = Trace of Precipitation, MM = Missing Value Source: NWS Daily Summary

Daily Weather History Graph

Daily Weather History Graph

Search for Another Location

Airport:

Trip Planner

Search our weather history database for the weather conditions in past years. The results will help you decide how hot, cold, wet, or windy it might be!

Date:

Astronomy

Oct. 15, 2012 Rise Set
Actual Time 7:27 AM EDT 6:47 PM EDT
Civil Twilight 7:02 AM EDT 7:12 PM EDT
Nautical Twilight 6:33 AM EDT 7:41 PM EDT
Astronomical Twilight 6:04 AM EDT 8:10 PM EDT
Moon 7:34 AM EDT (10/15) 6:49 PM EDT (10/15)
Length of Visible Light 12h 09m
Length of Day
11h 19m
New Moon, 0% of the Moon is Illuminated
Oct 15
New Moon
Oct 21
First Quarter
Oct 29
Full
Nov 6
Last Quarter
Nov 13
New

Hourly Weather History & Observations

Time (EDT) Temp. Dew Point Humidity Pressure Visibility Wind Dir Wind Speed Gust Speed Precip Events Conditions
12:15 AM 66.2 °F 60.8 °F 83% 30.06 in 10.0 mi SSE 3.5 mph - 0.00 in   Mostly Cloudy
12:35 AM 66.2 °F 60.8 °F 83% 30.06 in 10.0 mi Calm Calm - 0.00 in   Mostly Cloudy
12:55 AM 66.2 °F 60.8 °F 83% 30.05 in 10.0 mi Calm Calm - 0.00 in   Scattered Clouds
1:15 AM 66.2 °F 60.8 °F 83% 30.05 in 10.0 mi Calm Calm - 0.00 in   Mostly Cloudy
1:35 AM 66.2 °F 60.8 °F 83% 30.05 in 10.0 mi Calm Calm - 0.00 in   Mostly Cloudy
1:55 AM 66.2 °F 60.8 °F 83% 30.04 in 10.0 mi Calm Calm - 0.00 in   Mostly Cloudy
2:15 AM 66.2 °F 62.6 °F 88% 30.03 in 10.0 mi Calm Calm - 0.00 in   Overcast
2:35 AM 66.2 °F 62.6 °F 88% 30.03 in 10.0 mi South 3.5 mph - 0.00 in   Mostly Cloudy
2:55 AM 66.2 °F 62.6 °F 88% 30.01 in 10.0 mi South 4.6 mph - 0.00 in   Mostly Cloudy
3:15 AM 66.2 °F 62.6 °F 88% 30.01 in 10.0 mi SSE 3.5 mph - 0.00 in   Overcast
3:35 AM 66.2 °F 62.6 °F 88% 29.99 in 10.0 mi South 4.6 mph - 0.00 in   Mostly Cloudy
3:55 AM 66.2 °F 62.6 °F 88% 29.98 in 10.0 mi Calm Calm - 0.00 in   Scattered Clouds
4:15 AM 66.2 °F 62.6 °F 88% 29.97 in 10.0 mi South 4.6 mph - 0.00 in   Mostly Cloudy
4:35 AM 66.2 °F 62.6 °F 88% 29.97 in 10.0 mi South 3.5 mph - 0.00 in   Partly Cloudy
4:55 AM 66.2 °F 62.6 °F 88% 29.97 in 10.0 mi SSW 4.6 mph - 0.00 in   Scattered Clouds
5:15 AM 66.2 °F 62.6 °F 88% 29.96 in 10.0 mi South 3.5 mph - 0.00 in   Mostly Cloudy
5:35 AM 66.2 °F 62.6 °F 88% 29.96 in 10.0 mi South 3.5 mph - 0.00 in   Overcast
5:55 AM 66.2 °F 62.6 °F 88% 29.96 in 10.0 mi South 3.5 mph - 0.00 in   Mostly Cloudy
6:15 AM 64.4 °F 62.6 °F 94% 29.95 in 10.0 mi South 3.5 mph - 0.00 in   Partly Cloudy
6:35 AM 64.4 °F 62.6 °F 94% 29.95 in 10.0 mi South 4.6 mph - 0.00 in   Clear
6:55 AM 64.4 °F 62.6 °F 94% 29.95 in 10.0 mi Calm Calm - 0.00 in   Clear
7:15 AM 64.4 °F 62.6 °F 94% 29.95 in 10.0 mi South 3.5 mph - 0.00 in   Clear
7:35 AM 64.4 °F 62.6 °F 94% 29.95 in 9.0 mi South 4.6 mph - 0.00 in   Clear
7:55 AM 64.4 °F 62.6 °F 94% 29.95 in 8.0 mi SSW 4.6 mph - 0.00 in   Clear
8:15 AM 64.4 °F 62.6 °F 94% 29.95 in 9.0 mi South 4.6 mph - 0.00 in   Clear
8:35 AM 64.4 °F 64.4 °F 100% 29.96 in 10.0 mi South 4.6 mph - 0.00 in   Clear
8:55 AM 66.2 °F 64.4 °F 94% 29.96 in 9.0 mi South 4.6 mph - 0.00 in   Clear
9:15 AM 66.2 °F 64.4 °F 94% 29.95 in 9.0 mi SSW 4.6 mph - 0.00 in   Scattered Clouds
9:35 AM 68.0 °F 64.4 °F 88% 29.95 in 10.0 mi SSW 5.8 mph - 0.00 in   Partly Cloudy
9:55 AM 69.8 °F 64.4 °F 83% 29.95 in 10.0 mi SSW 5.8 mph - 0.00 in   Clear
10:15 AM 71.6 °F 64.4 °F 78% 29.95 in 10.0 mi SSW 11.5 mph - 0.00 in   Clear
10:35 AM 73.4 °F 66.2 °F 78% 29.94 in 10.0 mi SSW 6.9 mph - 0.00 in   Partly Cloudy
10:55 AM 73.4 °F 66.2 °F 78% 29.93 in 10.0 mi SSW 8.1 mph - 0.00 in   Scattered Clouds
11:15 AM 73.4 °F 66.2 °F 78% 29.92 in 9.0 mi SW 9.2 mph - 0.00 in   Scattered Clouds
11:35 AM 73.4 °F 66.2 °F 78% 29.90 in 9.0 mi SW 8.1 mph - 0.00 in   Scattered Clouds
11:55 AM 73.4 °F 66.2 °F 78% 29.89 in 9.0 mi SW 9.2 mph - 0.00 in   Clear
12:15 PM 75.2 °F 66.2 °F 73% 29.89 in 10.0 mi SW 6.9 mph - 0.00 in   Scattered Clouds
12:35 PM 75.2 °F 66.2 °F 73% 29.89 in 10.0 mi SW 10.4 mph - 0.00 in   Mostly Cloudy
12:55 PM 77.0 °F 66.2 °F 69% 29.88 in 10.0 mi WSW 12.7 mph 21.9 mph 0.00 in   Scattered Clouds
1:15 PM 78.8 °F 64.4 °F 61% 29.87 in 10.0 mi West 19.6 mph - 0.00 in   Scattered Clouds
1:35 PM 77.0 °F 64.4 °F 65% 29.85 in 10.0 mi WSW 13.8 mph - 0.00 in   Partly Cloudy
2:15 PM 78.8 °F 64.4 °F 61% 29.83 in 10.0 mi West 12.7 mph 20.7 mph 0.00 in   Scattered Clouds
2:35 PM 78.8 °F 64.4 °F 61% 29.82 in 10.0 mi West 13.8 mph 20.7 mph 0.00 in   Scattered Clouds
2:55 PM 78.8 °F 64.4 °F 61% 29.80 in 10.0 mi West 13.8 mph 20.7 mph 0.00 in   Partly Cloudy
3:15 PM 78.8 °F 64.4 °F 61% 29.79 in 10.0 mi West 9.2 mph - 0.00 in   Scattered Clouds
3:35 PM 78.8 °F 64.4 °F 61% 29.79 in 10.0 mi West 17.3 mph 24.2 mph 0.00 in   Partly Cloudy
3:55 PM 78.8 °F 64.4 °F 61% 29.79 in 10.0 mi WSW 16.1 mph 19.6 mph 0.00 in   Scattered Clouds
4:15 PM 78.8 °F 64.4 °F 61% 29.78 in 10.0 mi WSW 13.8 mph 18.4 mph 0.00 in   Partly Cloudy
4:35 PM 78.8 °F 64.4 °F 61% 29.78 in 10.0 mi SW 10.4 mph 19.6 mph 0.00 in   Partly Cloudy
4:55 PM 78.8 °F 64.4 °F 61% 29.78 in 10.0 mi West 8.1 mph - 0.00 in   Partly Cloudy
5:15 PM 78.8 °F 64.4 °F 61% 29.77 in 10.0 mi West 13.8 mph - 0.00 in   Scattered Clouds
5:35 PM 77.0 °F 64.4 °F 65% 29.77 in 10.0 mi West 5.8 mph - 0.00 in   Scattered Clouds
5:55 PM 77.0 °F 64.4 °F 65% 29.77 in 10.0 mi WSW 6.9 mph - 0.00 in   Partly Cloudy
6:15 PM 77.0 °F 62.6 °F 61% 29.76 in 10.0 mi WSW 8.1 mph - 0.00 in   Clear
6:35 PM 75.2 °F 62.6 °F 65% 29.77 in 10.0 mi WSW 5.8 mph - 0.00 in   Clear
6:55 PM 73.4 °F 60.8 °F 65% 29.77 in 10.0 mi West 6.9 mph - 0.00 in   Clear
7:15 PM 71.6 °F 59.0 °F 64% 29.79 in 10.0 mi West 5.8 mph - 0.00 in   Clear
7:35 PM 71.6 °F 57.2 °F 60% 29.80 in 10.0 mi West 6.9 mph - 0.00 in   Clear
7:55 PM 69.8 °F 55.4 °F 60% 29.80 in 10.0 mi West 5.8 mph - 0.00 in   Clear
8:15 PM 69.8 °F 55.4 °F 60% 29.82 in 10.0 mi WNW 12.7 mph - 0.00 in   Scattered Clouds
8:35 PM 69.8 °F 53.6 °F 56% 29.83 in 10.0 mi NW 9.2 mph - 0.00 in   Scattered Clouds
8:55 PM 66.2 °F 53.6 °F 64% 29.84 in 10.0 mi WNW 5.8 mph - 0.00 in   Clear
9:15 PM 66.2 °F 53.6 °F 64% 29.84 in 10.0 mi NW 5.8 mph - 0.00 in   Clear
9:35 PM 64.4 °F 51.8 °F 64% 29.85 in 10.0 mi NW 6.9 mph - 0.00 in   Clear
9:55 PM 64.4 °F 48.2 °F 56% 29.86 in 10.0 mi NNW 6.9 mph - 0.00 in   Clear
10:15 PM 64.4 °F 48.2 °F 56% 29.86 in 10.0 mi NW 5.8 mph - 0.00 in   Clear
10:35 PM 62.6 °F 48.2 °F 59% 29.87 in 10.0 mi NW 4.6 mph - 0.00 in   Clear
10:55 PM 60.8 °F 48.2 °F 63% 29.87 in 10.0 mi NW 5.8 mph - 0.00 in   Clear
11:15 PM 59.0 °F 48.2 °F 67% 29.87 in 10.0 mi NW 4.6 mph - 0.00 in   Clear
11:35 PM 59.0 °F 48.2 °F 67% 29.88 in 10.0 mi North 4.6 mph - 0.00 in   Clear
11:55 PM 59.0 °F 48.2 °F 67% 29.88 in 10.0 mi NNW 5.8 mph - 0.00 in   Clear